Location: Unspecified
(0.0000°N, 0.0000°E)
Time: 15:38:31
(UTC+00:00)

Vanguard 1 - Pass Details

Date: 17 December 2017
Orbit: 650 x 3833 km, 34.2° (Epoch: 20 April)

Event Time Altitude Azimuth Distance (km) Brightness Sun altitude
Rises 04:57:09 0° 235° (SW) 6,268 13.9 -13.5°
Reaches altitude 10° 05:00:39 10° 236° (SW) 5,585 13.6 -12.7°
Maximum altitude 05:19:53 83° 321° (NW) 3,725 12.9 -8.3°
Drops below altitude 10° 05:43:37 10° 49° (NE) 6,630 14.7 -2.9°
Sets 05:48:15 0° 51° (NE) 7,421 14.9 -1.8°
